Home   Weather   Ipswich   Past weeks

Flag for United Kingdom Past Weather in Ipswich, England, United Kingdom — Yesterday and Last 2 Weeks

Now
64 °F

Sunny.


Feels Like: 64 °F
Forecast: 55 / 67 °F
Wind: 14 mph from West

Location: Wattisham

Current Time: Sep 28, 2016 at 11:21:24 AM

Latest Report: Sep 28, 2016 at 10:50 AM


Visibility: 10 mi

Pressure: 30.21 "Hg

Humidity: 64%

Dew Point: 52 °F

Location of IpswichLocation

Past Weather in Ipswich — Graph

°F

Ipswich Temperature Yesterday

Maximum temperature yesterday: 66 °F (at 11:50 AM)
Minimum temperature yesterday: 54 °F (at 12:50 AM)
Average temperature yesterday: 61 °F

High & Low Weather Summary for the Past Weeks

 TemperatureHumidityPressure
High84 °F (Sep 13, 1:50 PM)100% (Sep 16, 8:50 AM)30.27 "Hg (Sep 16, 8:50 AM)
Low45 °F (Sep 23, 4:50 AM)35% (Sep 15, 2:50 PM)29.77 "Hg (Sep 15, 2:50 PM)
Average62 °F80%30.04 "Hg
* Reported Sep 13 9:50 AM — Sep 28 9:50 AM, Ipswich, Weather by CustomWeather, © 2016

Note: Actual official high and low records may vary slightly from our data, if they occured in-between our weather recording intervals... More about our weather records

Advertising

Ipswich Weather History for the Previous 24 Hours

Scroll right to see more
 ConditionsComfort  
Time TempWeatherWind HumidityBarometerVisibility
9:50 AM
Wed, Sep 28
61 °FSunny.15 mph72%30.21 "Hg10 mi
8:50 AM57 °FSunny.13 mph82%30.21 "Hg10 mi
7:50 AM55 °FSunny.12 mph88%30.18 "Hg10 mi
6:50 AM54 °FClear.13 mph94%30.18 "Hg10 mi
5:50 AM54 °FClear.15 mph94%30.18 "Hg10 mi
4:50 AM54 °FClear.12 mph94%30.18 "Hg10 mi
3:50 AM55 °FCool.13 mph94%30.21 "HgN/A
2:50 AM57 °FPassing clouds.13 mph94%30.18 "HgN/A
1:50 AM59 °FClear.13 mph94%30.18 "Hg10 mi
12:50 AM59 °FClear.10 mph94%30.18 "Hg10 mi
11:50 PM
Tue, Sep 27
59 °FClear.10 mph94%30.21 "Hg10 mi
10:50 PM59 °FClear.9 mph94%30.21 "Hg10 mi
9:50 PM61 °FPassing clouds.10 mph94%30.21 "HgN/A
8:50 PM64 °FOvercast.12 mph83%30.18 "HgN/A
7:50 PM64 °FPassing clouds.13 mph83%30.18 "HgN/A
6:50 PM64 °FPassing clouds.9 mph83%30.18 "HgN/A
5:50 PM64 °FPartly sunny.10 mph83%30.18 "HgN/A
4:50 PM66 °FPartly sunny.14 mph78%30.15 "HgN/A
3:50 PM66 °FPartly sunny.17 mph73%30.15 "HgN/A
2:50 PM66 °FPartly sunny.16 mph73%30.15 "HgN/A
1:50 PM64 °FPartly sunny.14 mph73%30.18 "HgN/A
12:50 PM66 °FBroken clouds.14 mph68%30.18 "HgN/A
11:50 AM66 °FPartly sunny.17 mph64%30.18 "HgN/A
Weather by CustomWeather, © 2016

See weather overviewHow to use our weather pages